Location: Unspecified
(41.5516°N, 88.1098°W)
Time: 20:23:45
(UTC-05:00)

Resurs 1-4 Rocket - Visible Passes

Search period start: 01 May 2016 00:00
Search period end: 11 May 2016 00:00
Orbit: 799 x 815 km, 98.4° (Epoch: 30 April)

Date Brightness Start Highest point End Pass type
(mag) Time Alt. Az. Time Alt. Az. Time Alt. Az.
01 May 3.9 02:53:22 10° NE 02:57:40 25° E 03:00:24 17° SE visible
01 May 2.6 04:32:42 10° N 04:37:38 42° WNW 04:41:30 16° SW visible
02 May 4.5 02:30:01 10° ENE 02:32:53 15° E 02:35:39 10° ESE visible
02 May 2.1 04:07:57 10° N 04:13:13 69° WNW 04:16:45 21° SSW visible
03 May 2.2 03:43:24 10° NNE 03:48:42 72° ESE 03:52:00 24° S visible
04 May 3.0 03:19:05 10° NNE 03:24:06 43° E 03:27:14 21° SSE visible
04 May 3.3 04:59:27 10° NNW 05:03:41 25° WNW 05:07:55 10° WSW visible
05 May 3.8 02:55:02 10° NE 02:59:25 26° E 03:02:29 16° SE visible
05 May 2.7 04:34:27 10° N 04:39:22 40° WNW 04:43:35 13° SW visible
06 May 4.5 02:31:35 10° NE 02:34:38 15° E 02:37:42 10° SE visible
06 May 2.1 04:09:41 10° N 04:14:56 66° WNW 04:18:49 18° SSW visible
07 May 2.2 03:45:07 10° NNE 03:50:26 76° ESE 03:54:03 21° S visible
08 May 3.0 03:20:46 10° NNE 03:25:50 45° E 03:29:17 19° SSE visible
08 May 3.4 05:01:14 10° NNW 05:05:23 24° WNW 05:09:33 10° WSW visible
09 May 3.8 02:56:41 10° NE 03:01:10 27° E 03:04:32 15° SE visible
09 May 2.8 04:36:12 10° N 04:41:04 38° WNW 04:45:37 12° SW visible
10 May 4.4 02:33:09 10° NE 02:36:23 16° E 02:39:37 10° SE visible
10 May 2.2 04:11:25 10° N 04:16:39 63° WNW 04:20:51 16° SSW visible
